Back to catalog

STARLINK-32390

AliveCommunicationsVLEO
NORAD 61630·PAYLOAD·🇺🇸 United States

Launched Oct 23, 2024 from Cape Canaveral Space Force Station

Loading…

Next Passes (next 24 hours)

TLE

FreshSource: CelesTrak SupGP

Epoch: Sep 14, 2026, 21:26 UTC

1 61630C 24191K   26257.89354167 -.00018533  00000+0 -67124-3 0  2579
2 61630  43.0001 166.1968 0001262 262.9449 332.2807 15.27588555    17

Track STARLINK-32390 in real time with AllMySat

Download on the App Store